When you browse on this site, cookies collect data to enhance your experience and personalize the content and advertising you see.
Visit our Privacy Policy to learn more. By continuing to use the site, you agree to this use of cookies and data.
EN

Hourly Weather Kingston upon Thames

Today, 20 September, Sunday

Time Temperature Precipitation Wind Pressure Humidity
00:00 +15°C° 0 mm 5 mps 761 mmHg 79%
01:00 +15°C° 0 mm 5 mps 760 mmHg 82%
02:00 +15°C° 0 mm 5 mps 760 mmHg 84%
03:00 +15°C° 0 mm 5 mps 760 mmHg 87%
04:00 +15°C° 0 mm 5 mps 760 mmHg 87%
05:00 +15°C° 0 mm 5 mps 760 mmHg 88%
06:00 +14°C° 0 mm 4 mps 761 mmHg 88%
07:00 +16°C° 0 mm 5 mps 761 mmHg 82%
08:00 +17°C° 0 mm 5 mps 761 mmHg 76%
09:00 +19°C° 0 mm 5 mps 761 mmHg 70%
10:00 +20°C° 0 mm 5 mps 761 mmHg 65%
11:00 +22°C° 0 mm 5 mps 761 mmHg 60%
12:00 +23°C° 0 mm 5 mps 761 mmHg 55%
13:00 +23°C° 0 mm 5 mps 761 mmHg 54%
14:00 +23°C° 0 mm 5 mps 761 mmHg 52%
15:00 +23°C° 0 mm 4 mps 760 mmHg 51%
16:00 +22°C° 0 mm 4 mps 761 mmHg 54%
17:00 +21°C° 0 mm 4 mps 761 mmHg 57%
18:00 +19°C° 0 mm 4 mps 761 mmHg 60%
19:00 +18°C° 0 mm 4 mps 761 mmHg 63%
20:00 +17°C° 0 mm 3 mps 761 mmHg 66%
21:00 +16°C° 0 mm 3 mps 762 mmHg 68%
22:00 +16°C° 0 mm 3 mps 762 mmHg 73%
23:00 +14°C° 0 mm 3 mps 761 mmHg 78%

Tomorrow, 21 September, Monday

Time Temperature Precipitation Wind Pressure Humidity
00:00 +15°C° 0 mm 2 mps 761 mmHg 83%
01:00 +14°C° 0 mm 2 mps 761 mmHg 85%
02:00 +14°C° 0 mm 2 mps 761 mmHg 87%
03:00 +14°C° 0 mm 2 mps 761 mmHg 89%
04:00 +13°C° 0 mm 2 mps 761 mmHg 90%
05:00 +13°C° 0 mm 2 mps 761 mmHg 90%
06:00 +13°C° 0 mm 1 mps 760 mmHg 91%
07:00 +15°C° 0 mm 2 mps 761 mmHg 85%
08:00 +16°C° 0 mm 2 mps 761 mmHg 79%
09:00 +18°C° 0 mm 2 mps 761 mmHg 73%
10:00 +19°C° 0 mm 2 mps 761 mmHg 64%
11:00 +22°C° 0 mm 1 mps 760 mmHg 56%
12:00 +24°C° 0 mm 1 mps 760 mmHg 47%
13:00 +24°C° 0 mm 1 mps 760 mmHg 44%
14:00 +24°C° 0 mm 1 mps 760 mmHg 42%
15:00 +25°C° 0 mm 1 mps 759 mmHg 40%
16:00 +23°C° 0 mm 1 mps 759 mmHg 44%
17:00 +22°C° 0 mm 1 mps 759 mmHg 49%
18:00 +18°C° 0 mm 0 mps 759 mmHg 53%
19:00 +17°C° 0 mm 0 mps 759 mmHg 56%
20:00 +17°C° 0 mm 0 mps 759 mmHg 59%
21:00 +16°C° 0 mm 0 mps 759 mmHg 62%
22:00 +16°C° 0 mm 0 mps 758 mmHg 63%
23:00 +15°C° 0 mm 0 mps 758 mmHg 63%

Day after tomorrow, 22 September, Tuesday

Time Temperature Precipitation Wind Pressure Humidity
00:00 +15°C° 0 mm 0 mps 758 mmHg 64%
01:00 +15°C° 0 mm 0 mps 757 mmHg 65%
02:00 +15°C° 0 mm 0 mps 757 mmHg 66%
03:00 +14°C° 0 mm 0 mps 756 mmHg 67%
04:00 +14°C° 0 mm 0 mps 756 mmHg 68%
05:00 +15°C° 0 mm 1 mps 756 mmHg 68%
06:00 +15°C° 0 mm 1 mps 756 mmHg 69%
07:00 +18°C° 0 mm 1 mps 755 mmHg 65%
08:00 +18°C° 0 mm 2 mps 755 mmHg 62%
09:00 +20°C° 0 mm 2 mps 755 mmHg 58%
10:00 +21°C° 0 mm 3 mps 754 mmHg 55%
11:00 +24°C° 0 mm 3 mps 754 mmHg 51%
12:00 +25°C° 0 mm 4 mps 753 mmHg 48%
13:00 +25°C° 0 mm 4 mps 753 mmHg 50%
14:00 +25°C° 0 mm 4 mps 752 mmHg 52%
15:00 +25°C° 0 mm 5 mps 751 mmHg 54%
16:00 +22°C° 0 mm 4 mps 751 mmHg 63%
17:00 +21°C° 0 mm 4 mps 751 mmHg 72%
18:00 +19°C° 0 mm 4 mps 751 mmHg 80%
19:00 +19°C° 0 mm 4 mps 751 mmHg 82%
20:00 +18°C° 0 mm 3 mps 751 mmHg 83%
21:00 +17°C° 0 mm 3 mps 751 mmHg 85%
22:00 +17°C° 0 mm 3 mps 750 mmHg 85%
23:00 +17°C° 0 mm 3 mps 750 mmHg 86%

23 September, Wednesday

Time Temperature Precipitation Wind Pressure Humidity
00:00 +17°C° 0 mm 3 mps 750 mmHg 87%
01:00 +16°C° 0 mm 3 mps 749 mmHg 88%
02:00 +16°C° 0 mm 2 mps 749 mmHg 89%
03:00 +15°C° 0 mm 2 mps 748 mmHg 90%
04:00 +15°C° 0.1 mm 2 mps 748 mmHg 90%
05:00 +16°C° 0.1 mm 3 mps 748 mmHg 90%
06:00 +16°C° 0.1 mm 3 mps 748 mmHg 90%
07:00 +16°C° 1.2 mm 3 mps 747 mmHg 90%
08:00 +16°C° 1.2 mm 3 mps 747 mmHg 90%
09:00 +16°C° 1.2 mm 3 mps 747 mmHg 90%
10:00 +16°C° 0.5 mm 3 mps 746 mmHg 87%
11:00 +16°C° 0.5 mm 3 mps 746 mmHg 83%
12:00 +15°C° 0.5 mm 4 mps 746 mmHg 80%
13:00 +16°C° 0.2 mm 5 mps 745 mmHg 77%
14:00 +17°C° 0.2 mm 6 mps 745 mmHg 75%
15:00 +17°C° 0.2 mm 6 mps 744 mmHg 72%
16:00 +16°C° 0.2 mm 6 mps 744 mmHg 74%
17:00 +15°C° 0.2 mm 6 mps 744 mmHg 76%
18:00 +13°C° 0.2 mm 6 mps 744 mmHg 78%
19:00 +11°C° 0.1 mm 6 mps 745 mmHg 78%
20:00 +10°C° 0.1 mm 6 mps 746 mmHg 77%
21:00 +9°C° 0.1 mm 6 mps 746 mmHg 77%
22:00 +9°C° 0 mm 6 mps 747 mmHg 77%
23:00 +8°C° 0 mm 5 mps 747 mmHg 78%

24 September, Thursday

Time Temperature Precipitation Wind Pressure Humidity
00:00 +8°C° 0 mm 5 mps 748 mmHg 78%
01:00 +7°C° 0 mm 4 mps 747 mmHg 79%
02:00 +7°C° 0 mm 4 mps 747 mmHg 79%
03:00 +8°C° 0 mm 3 mps 746 mmHg 80%
04:00 +8°C° 0 mm 4 mps 746 mmHg 80%
05:00 +9°C° 0 mm 5 mps 745 mmHg 79%
06:00 +9°C° 0 mm 5 mps 745 mmHg 79%
07:00 +9°C° 1.1 mm 5 mps 744 mmHg 80%
08:00 +9°C° 1.1 mm 5 mps 744 mmHg 80%
09:00 +10°C° 1.1 mm 5 mps 744 mmHg 80%
10:00 +10°C° 0.3 mm 5 mps 744 mmHg 74%
11:00 +12°C° 0.3 mm 5 mps 744 mmHg 67%
12:00 +13°C° 0.3 mm 5 mps 744 mmHg 60%
13:00 +13°C° 0.2 mm 5 mps 743 mmHg 60%
14:00 +13°C° 0.2 mm 5 mps 743 mmHg 59%
15:00 +13°C° 0.2 mm 5 mps 743 mmHg 59%
16:00 +12°C° 0.1 mm 4 mps 743 mmHg 63%
17:00 +11°C° 0.1 mm 3 mps 742 mmHg 68%
18:00 +10°C° 0.1 mm 2 mps 742 mmHg 72%
19:00 +10°C° 0.1 mm 2 mps 743 mmHg 75%
20:00 +11°C° 0.1 mm 1 mps 743 mmHg 77%
21:00 +10°C° 0.1 mm 1 mps 743 mmHg 79%
22:00 +9°C° 0 mm 2 mps 744 mmHg 80%
23:00 +8°C° 0 mm 2 mps 745 mmHg 81%

25 September, Friday

Time Temperature Precipitation Wind Pressure Humidity
00:00 +8°C° 0 mm 3 mps 745 mmHg 82%
01:00 +7°C° 0 mm 4 mps 746 mmHg 83%
02:00 +7°C° 0 mm 5 mps 746 mmHg 84%
03:00 +5°C° 0 mm 6 mps 746 mmHg 85%
04:00 +5°C° 0 mm 6 mps 747 mmHg 82%
05:00 +5°C° 0 mm 6 mps 748 mmHg 78%
06:00 +6°C° 0 mm 7 mps 749 mmHg 75%
07:00 +6°C° 0 mm 7 mps 749 mmHg 72%
08:00 +8°C° 0 mm 7 mps 750 mmHg 68%
09:00 +9°C° 0 mm 8 mps 751 mmHg 64%
10:00 +10°C° 0 mm 7 mps 751 mmHg 59%
11:00 +11°C° 0 mm 7 mps 752 mmHg 54%
12:00 +12°C° 0 mm 7 mps 752 mmHg 48%
13:00 +12°C° 0 mm 7 mps 753 mmHg 48%
14:00 +13°C° 0 mm 6 mps 753 mmHg 47%
15:00 +13°C° 0 mm 6 mps 753 mmHg 46%
16:00 +12°C° 0 mm 5 mps 754 mmHg 50%
17:00 +11°C° 0 mm 4 mps 754 mmHg 54%
18:00 +10°C° 0 mm 3 mps 754 mmHg 58%
19:00 +10°C° 0 mm 3 mps 754 mmHg 61%
20:00 +9°C° 0 mm 3 mps 755 mmHg 64%
21:00 +8°C° 0 mm 2 mps 755 mmHg 67%
22:00 +8°C° 0 mm 2 mps 755 mmHg 69%
23:00 +7°C° 0 mm 2 mps 755 mmHg 71%
Show more